Back to catalog

CZ-6A DEB

AlivePO
NORAD 64663·DEBRIS·🇨🇳 China

Launched Aug 6, 2024 from Taiyuan Satellite Launch Center

Loading…

Next Passes (next 24 hours)

TLE

FreshSource: Space-Track

Epoch: Sep 14, 2026, 10:43 UTC

1 64663U 24140AFD 26257.44656079  .00004116  00000-0  72981-3 0  9991
2 64663  89.0431 263.4447 0085836 299.7892  59.4806 14.64710278100359

Track CZ-6A DEB in real time with AllMySat

Download on the App Store